TimeEDT,TemperatureF,Dew PointF,Humidity,Sea Level PressureIn,VisibilityMPH,Wind Direction,Wind SpeedMPH,Gust SpeedMPH,PrecipitationIn,Events,Conditions,WindDirDegrees,DateUTC
12:53 AM,60.1,55.9,86,30.15,10.0,NNE,6.9,-,N/A,,Clear,30,2012-09-20 04:53:00
1:53 AM,57.9,54.0,87,30.16,10.0,NE,8.1,-,N/A,,Clear,50,2012-09-20 05:53:00
2:53 AM,57.9,51.1,78,30.15,10.0,NE,9.2,-,N/A,,Clear,40,2012-09-20 06:53:00
3:53 AM,57.9,51.1,78,30.16,10.0,NNE,10.4,-,N/A,,Clear,30,2012-09-20 07:53:00
4:53 AM,60.1,54.0,80,30.17,10.0,NE,10.4,-,N/A,,Clear,40,2012-09-20 08:53:00
5:53 AM,59.0,52.0,78,30.18,10.0,NE,13.8,-,N/A,,Clear,40,2012-09-20 09:53:00
6:53 AM,57.9,53.1,84,30.19,10.0,NE,13.8,-,N/A,,Clear,40,2012-09-20 10:53:00
7:53 AM,61.0,52.0,72,30.19,10.0,NE,12.7,-,N/A,,Clear,50,2012-09-20 11:53:00
8:53 AM,63.0,51.1,65,30.21,10.0,NE,17.3,26.5,N/A,,Clear,50,2012-09-20 12:53:00
9:53 AM,64.0,52.0,65,30.21,10.0,NE,17.3,23.0,N/A,,Clear,50,2012-09-20 13:53:00
10:53 AM,64.4,51.8,64,30.20,10.0,NE,16.1,24.2,N/A,,Clear,40,2012-09-20 14:53:00
11:53 AM,64.9,51.1,61,30.18,10.0,NE,16.1,23.0,N/A,,Clear,50,2012-09-20 15:53:00
12:53 PM,66.0,51.1,59,30.18,10.0,NNE,18.4,24.2,N/A,,Clear,30,2012-09-20 16:53:00
1:53 PM,64.9,48.9,56,30.17,10.0,NE,18.4,24.2,N/A,,Clear,50,2012-09-20 17:53:00
2:53 PM,64.9,48.0,54,30.17,10.0,NE,18.4,24.2,N/A,,Clear,50,2012-09-20 18:53:00
3:53 PM,64.0,48.9,58,30.15,10.0,NE,15.0,21.9,N/A,,Clear,50,2012-09-20 19:53:00
4:53 PM,63.0,48.0,58,30.14,10.0,NNE,16.1,-,N/A,,Clear,30,2012-09-20 20:53:00
5:53 PM,60.1,48.9,67,30.15,10.0,NNE,12.7,-,N/A,,Clear,30,2012-09-20 21:53:00
6:53 PM,55.9,48.9,77,30.16,10.0,NNE,9.2,-,N/A,,Clear,30,2012-09-20 22:53:00
7:53 PM,55.0,48.9,80,30.16,10.0,NNE,8.1,-,N/A,,Clear,20,2012-09-20 23:53:00
8:53 PM,55.0,51.1,86,30.16,10.0,NNE,6.9,-,N/A,,Clear,30,2012-09-21 00:53:00
9:53 PM,54.0,51.1,90,30.17,10.0,NNE,5.8,-,N/A,,Clear,20,2012-09-21 01:53:00
10:53 PM,53.1,51.1,93,30.16,10.0,NNE,5.8,-,N/A,,Clear,20,2012-09-21 02:53:00
11:53 PM,53.1,51.1,93,30.15,10.0,NNE,5.8,-,N/A,,Clear,30,2012-09-21 03:53:00